Location: Newark
(12.4436°N, 0.6167°W)
Time: 01:35:29
(UTC+00:00)

Vanguard 2 - Pass Details

Date: 17 December 2019
Orbit: 553 x 2938 km, 32.9° (Epoch: 22 January)

Event Time Altitude Azimuth Distance (km) Brightness Sun altitude
Rises 21:20:52 0° 245° (WSW) 3,670 11.6 -51.1°
Reaches altitude 10° 21:23:02 10° 247° (WSW) 2,944 11.0 -51.5°
Enters shadow 21:24:03 16° 249° (WSW) 2,626 10.6 -51.8°
Maximum altitude 21:30:27 72° 331° (NNW) 1,611 - -53.2°
Drops below altitude 10° 21:43:16 10° 54° (NE) 4,871 - -56.1°
Sets 21:47:56 0° 56° (ENE) 6,200 - -57.1°
